KE7TOP-15 Weather Reports


Display with metric or nautical units.
time (UTC)temp
F
wind
direction
speed
MPH
gust
MPH
rain 1hr
in
rain 24hr
in
rain mn
in
humidity
%
barometer
mb
20260503055020 49 135 2.0 4.0 0.00 0.08 0.08 80 1017.2
20260503054019 48 145 2.0 4.0 0.00 0.08 0.08 87 1017.2
20260503053018 48 353 1.0 2.0 0.00 0.08 0.08 85 1017.2
20260503052037 49 126 1.0 2.0 0.00 0.08 0.08 84 1017.5
20260503051016 50 133 2.0 3.0 0.00 0.08 0.08 82 1017.7
20260503050015 50 149 2.0 4.0 0.00 0.08 0.08 81 1017.8
20260503045024 50 301 1.0 3.0 0.00 0.08 0.08 82 1017.5
20260503044024 49 284 2.0 4.0 0.00 0.08 0.08 85 1017.4
20260503043023 49 157 2.0 3.0 0.00 0.08 0.08 86 1017.6
20260503042022 50 144 1.0 4.0 0.00 0.08 0.08 85 1017.6
20260503041101 50 305 0.0 2.0 0.00 0.08 0.08 84 1017.5
20260503040021 50 122 1.0 3.0 0.00 0.08 0.08 81 1017.4
20260503035018 50 123 2.0 4.0 0.00 0.08 0.08 84 1017.2
20260503034018 51 297 0.0 2.0 0.01 0.08 0.08 79 1016.8
20260503033015 51 149 2.0 5.0 0.01 0.08 0.08 81 1016.4
20260503032025 51 133 2.0 5.0 0.01 0.08 0.08 79 1016.3
20260503031044 51 126 3.0 6.0 0.01 0.08 0.08 80 1015.9
20260503030044 51 295 1.0 3.0 0.01 0.08 0.08 80 1016.1
20260503025023 51 295 2.0 7.0 0.01 0.08 0.08 80 1016.2
20260503024022 52 151 3.0 6.0 0.00 0.07 0.07 75 1016.9
20260503023019 52 125 3.0 6.0 0.00 0.07 0.07 78 1016.9
20260503022018 51 141 2.0 4.0 0.01 0.07 0.07 80 1016.9
20260503021018 51 132 2.0 5.0 0.02 0.07 0.07 82 1016.5
20260503020015 51 299 2.0 6.0 0.04 0.07 0.07 82 1016.3
20260503015045 51 311 2.0 5.0 0.04 0.07 0.07 80 1016.4
20260503014021 51 177 2.0 4.0 0.04 0.07 0.07 81 1016.6
20260503013018 51 292 3.0 5.0 0.05 0.07 0.07 78 1016.9
20260503012017 53 187 2.0 5.0 0.06 0.06 0.06 70 1017.1
20260503011016 52 180 4.0 7.0 0.05 0.05 0.05 75 1017.3
20260503010015 53 306 3.0 6.0 0.03 0.03 0.03 75 1016.6
20260503005024 54 161 1.0 3.0 0.03 0.03 0.03 70 1016.2
20260503004024 55 178 2.0 8.0 0.03 0.03 0.03 66 1016.0
20260503003043 60 147 4.0 8.0 0.02 0.02 0.02 55 1016.0
20260503002022 62 125 2.0 5.0 0.00 0.00 0.00 41 1015.5
20260503001022 63 152 2.0 4.0 0.00 0.00 0.00 36 1015.1
20260503000021 63 153 1.0 2.0 0.00 0.00 0.00 35 1014.8
20260502235020 63 326 1.0 4.0 0.00 0.00 0.00 34 1014.8
20260502234020 62 135 1.0 4.0 0.00 0.00 0.00 34 1015.2
20260502233019 62 5 1.0 2.0 0.00 0.00 0.00 35 1015.2
20260502232018 62 71 1.0 4.0 0.00 0.00 0.00 36 1015.4
20260502231016 61 141 2.0 5.0 0.00 0.00 0.00 36 1015.4
20260502230035 61 60 3.0 7.0 0.00 0.00 0.00 38 1015.6
20260502225025 61 308 2.0 6.0 0.00 0.00 0.00 38 1015.7
20260502224024 62 336 3.0 7.0 0.00 0.00 0.00 34 1016.2
20260502223023 62 302 3.0 5.0 0.00 0.00 0.00 36 1016.0
20260502222023 63 300 4.0 9.0 0.00 0.00 0.00 35 1016.0
20260502221022 65 144 3.0 6.0 0.00 0.00 0.00 32 1015.6
20260502220041 65 151 5.0 12.0 0.00 0.00 0.00 29 1015.8
20260502215021 66 316 2.0 5.0 0.00 0.00 0.00 30 1015.9
20260502214018 66 151 1.0 4.0 0.00 0.00 0.00 29 1016.0
20260502213018 66 155 2.0 4.0 0.00 0.00 0.00 29 1016.0
20260502212017 66 158 3.0 5.0 0.00 0.00 0.00 29 1016.2
20260502211016 66 139 2.0 5.0 0.00 0.00 0.00 29 1016.4
20260502210016 64 138 2.0 6.0 0.00 0.00 0.00 30 1016.5
20260502205015 65 153 4.0 9.0 0.00 0.00 0.00 29 1016.7
20260502204025 66 310 2.0 5.0 0.00 0.00 0.00 28 1016.6
20260502203024 67 19 2.0 5.0 0.00 0.00 0.00 27 1016.5
20260502202023 67 154 2.0 5.0 0.00 0.00 0.00 26 1016.4
20260502201022 67 131 2.0 6.0 0.00 0.00 0.00 26 1016.5
20260502200022 67 115 3.0 6.0 0.00 0.00 0.00 25 1016.5
20260502195021 67 146 4.0 10.0 0.00 0.00 0.00 25 1016.7
20260502194020 67 144 3.0 7.0 0.00 0.00 0.00 24 1016.5
20260502193018 67 137 4.0 10.0 0.00 0.00 0.00 25 1016.7
20260502192017 68 150 5.0 10.0 0.00 0.00 0.00 24 1016.7
20260502191036 67 152 3.0 6.0 0.00 0.00 0.00 25 1016.7
20260502190036 68 148 3.0 7.0 0.00 0.00 0.00 24 1016.7
20260502185015 67 166 3.0 5.0 0.00 0.00 0.00 24 1016.8
20260502184025 67 156 4.0 8.0 0.00 0.00 0.00 24 1017.0
20260502182022 66 161 2.0 4.0 0.00 0.00 0.00 26 1017.2
20260502181021 66 158 4.0 6.0 0.00 0.00 0.00 26 1017.2
20260502164023 65 309 2.0 5.0 0.00 0.00 0.00 31 1017.1
20260502163023 64 283 2.0 4.0 0.00 0.00 0.00 33 1017.2
20260502162022 63 301 2.0 5.0 0.00 0.00 0.00 36 1017.2
20260502161021 63 316 2.0 5.0 0.00 0.00 0.00 38 1017.3
20260502152023 55 136 1.0 4.0 0.00 0.00 0.00 50 1017.2
20260502151023 54 29 1.0 2.0 0.00 0.00 0.00 53 1017.2
20260502123025 41 123 1.0 3.0 0.00 0.00 0.00 71 1016.5
20260502122022 41 123 1.0 3.0 0.00 0.00 0.00 70 1016.5
20260502121021 41 125 2.0 3.0 0.00 0.00 0.00 70 1016.4
20260502115038 42 119 2.0 3.0 0.00 0.00 0.00 68 1016.5
20260502114017 43 123 1.0 2.0 0.00 0.00 0.00 65 1016.5
20260502113016 43 111 0.0 2.0 0.00 0.00 0.00 64 1016.4
20260502112015 43 137 2.0 4.0 0.00 0.00 0.00 65 1016.4
20260502111025 43 117 2.0 3.0 0.00 0.00 0.00 64 1016.4
20260502105522 43 120 2.0 3.0 0.00 0.00 0.00 64 1016.4
20260502104521 43 125 1.0 4.0 0.00 0.00 0.00 64 1016.6
20260502103520 44 118 1.0 2.0 0.00 0.00 0.00 63 1016.5
20260502102519 44 124 2.0 3.0 0.00 0.00 0.00 63 1016.5
20260502101538 44 124 1.0 3.0 0.00 0.00 0.00 63 1016.5
20260502100518 44 119 1.0 2.0 0.00 0.00 0.00 62 1016.4
20260502091520 45 106 1.0 2.0 0.00 0.00 0.00 57 1016.8
20260502090520 45 127 1.0 2.0 0.00 0.00 0.00 57 1016.9
20260502071520 49 125 2.0 3.0 0.00 0.00 0.00 41 1017.5
20260502070519 49 115 1.0 2.0 0.00 0.00 0.00 36 1017.7
20260502065517 49 122 2.0 3.0 0.00 0.00 0.00 33 1017.8
20260502064516 49 120 1.0 3.0 0.00 0.00 0.00 31 1017.6
20260502063525 49 123 1.0 3.0 0.00 0.00 0.00 30 1017.6
20260502062524 50 131 1.0 4.0 0.00 0.00 0.00 30 1017.5
20260502060521 50 132 0.0 2.0 0.00 0.00 0.00 29 1017.6